SCP
0 0 0 0 0 0 0 0 0 0 0 0 0 0 0 0 0 0 0 0 0 0 0 0 0 0 0 0 0 0 0 0 0 0 0 0 0 0
0 0 0 0 0 0 0 0 0 0 0 0 0 0 0 0 0 0 0 0 0 0 0 0 0 0 0 0 0 0 0 0 0 0 0 0 0 0
0 0 0 0 0 0 0 0 0 0 0 0 0 0 0 0 0 0 0 0 0 0 0 0 0 0 0 0 0 0 0 0 0 0 0 0 0 0
0 0 0 0 0 0 0 0 0 0 0 0 0 0 0 0 0 0 0 0 0 0 0 0 0 0 0 0 0 0 0 0 0 0 0 0 0 0
0 0 0 0 0 0 0 0 0 0 0 0 0 0 0 0 0 0 0 0 0 0 0 0 0 0 0 0 0 0 0 0 0 0 0 0 0 0
0 0 0 0 0 0 0 0 0 0 0 0 0 0 0 0 0 0 0 0 0 0 0 0 0 0 0 0 0 0 0 0 0 0 0 0 0 0
0 0 0 0 0 0 0 0 0 0 0 0 0 0 0 -0 -0 -0 -0 0 0 0 0 0 0 0 0 0 0 0 0 0 0 0 0 0 0 0
0 0 0 0 0 0 0 0 0 0 0 0 0 0 0 -0 -0 -0 -0 -0 -0 0 0 0 0 0 0 0 0 0 0 0 0 -0 -0 -0 0 0
0 0 0 0 0 0 0 0 0 0 0 0 0 0 -0 -0 -0 -0 -0 -0 -0 -0 -0 -0 0 0 0 0 0 0 0 -0 -0 -0 -0 -0 -0 -0
0 0 0 0 0 0 0 0 0 0 0 -0 -0 0 -0 -0 -0 -0 -0 -0 -0 -0 -0 -0 -0 0 0 -0 -0 -0 -0 -0 -0 -0 -0 -0 -0 -0
0 0 0 0 0 0 -0 -0 -0 -0 -0 -0 -0 -0 -0 -0 -0 -0 -0 -0 -0 -0 -0 -0 -0 -0 -0 0 0 0 -0 -0 -0 -0 -0 -0 -0 -0
0 0 0 0 0 -0 -0 -0 -0 -0 -0 -0 -0 -0 -0 -0 -0 -0 -0 -0 -0 0 0 0 0 -0 0 0 0 0 -0 -0 -0 -0 -0 -0 -0 0
0 0 0 0 -0 -0 -0 -0 -0 -0 -0 -0 -0 -0 -0 0 0 0 0 0 0 0 0 0 0 0 0 0 -0 -0 0 0 0 0 0 0 0 0
0 -0 -0 -0 -0 -0 -0 -0 -0 -0 -0 -0 -0 -0 0 0 0 0 0 0 0 0 0 0 0 0 0 -0 -0 -0 0 0 0 0 0 0 0 0
-0 -0 -0 -0 -0 -0 -0 -0 0 0 -0 -0 -0 0 0 0 0 0 0 0 -0 0 0 0 -0 -0 -0 0 -0 -0 0 0 0 0 0 0 0 0
-0 -0 -0 -0 -0 -0 -0 -0 -0 0 0 0 0 0 0 0 0 0 0 0 0 0 0 0 0 0 0 -0 -0 -0 0 0 0 0 0 0 0 0
-0 -0 -0 -0 -0 -0 -0 -0 0 0 0 0 0 0 0 0 0 0 0 0 0 0 0 0 0 0 0 -0 -0 -0 0 0 0 0 0 0 0 0
0 0 -0 -0 -0 -0 -0 0 0 0 0 0 0 0 0 0 0 0 0 0 0 0 0 0 0 0 0 0 0 0 0 0 0 0 0 0 0 0
0 0 0 0 0 -0 0 0 0 0 0 0 0 0 0 0 0 0 0 0 0 0 0 0 0 0 0 0 0 0 0 0 0 0 0 0 0 0
0 0 0 0 0 0 0 0 0 0 0 0 0 0 0 0 0 0 0 0 0 0 0 0 0 0 0 0 0 0 0 0 0 0 0 0 0 0
0 0 0 0 0 0 0 0 0 0 0 0 0 0 0 0 0 0 0 0 0 0 0 0 0 0 0 0 0 0 0 0 0 0 0 0 0 0
0 0 0 0 -0 -0 0 0 0 0 0 0 0 0 0 0 0 0 0 0 0 0 0 0 0 0 0 0 0 0 0 0 0 0 0 0 0 0
0 0 0 -0 -0 -0 -0 0 0 0 0 0 0 0 0 0 0 0 0 0 0 0 0 0 0 0 0 0 0 0 0 0 0 0 0 0 0 0
Wind_Speed
5 5 5 4 4 5 5 5 8 12 11 8 7 7 6 6 9 7 7 13 15 15 15 16 18 19 20 19 18 18 17 17 18 18 18 17 18 19
5 6 6 5 5 5 5 6 6 9 11 8 7 8 8 11 15 10 9 18 18 17 17 18 20 20 20 20 19 18 18 18 18 18 17 16 15 15
6 6 6 6 5 5 5 6 6 7 11 9 7 8 9 10 10 9 10 10 10 18 19 19 19 19 19 19 18 17 17 17 17 17 16 14 12 11
6 6 7 7 7 6 5 6 7 7 9 12 9 9 10 10 10 10 11 11 8 12 13 13 14 16 17 17 16 15 14 14 15 15 13 12 10 7
8 8 8 8 8 6 6 7 6 8 7 10 11 9 9 10 10 11 11 8 9 10 10 10 11 12 13 14 13 13 12 11 12 11 9 8 7 5
9 9 9 8 7 7 7 7 7 7 8 8 9 9 9 9 8 7 7 6 6 7 8 9 10 11 13 13 14 14 12 11 10 8 7 6 5 3
10 9 10 13 14 10 9 8 8 7 7 8 9 9 9 8 8 7 8 7 7 5 5 5 5 4 6 10 15 15 13 11 10 9 8 7 6 5
10 9 10 12 13 14 17 18 15 11 9 9 9 10 11 10 8 8 7 8 6 3 3 5 3 4 4 3 6 10 11 11 10 10 10 9 9 8
9 9 10 12 13 10 12 16 14 16 17 13 12 13 12 10 9 10 9 9 9 5 3 5 4 5 4 5 8 7 8 9 10 11 11 11 11 11
9 10 11 11 12 12 12 12 11 11 12 10 9 9 9 8 9 10 11 10 8 6 5 4 3 3 4 3 7 7 8 9 11 13 14 14 14 14
10 11 12 12 14 15 13 12 11 10 11 10 8 9 12 13 11 7 7 6 4 2 3 2 2 2 2 3 4 6 7 10 13 15 17 17 17 16
10 10 12 12 14 14 11 9 10 8 6 6 6 7 7 7 8 5 4 3 2 1 1 1 1 1 2 1 1 2 4 9 13 16 18 19 19 13
9 8 8 14 15 14 11 7 8 7 5 5 4 4 4 3 4 4 5 4 3 2 2 2 2 1 2 2 2 2 3 5 6 9 14 19 20 17
9 8 9 15 15 12 8 7 7 5 2 2 3 3 3 3 3 4 5 5 5 4 5 3 1 1 1 2 2 3 4 4 5 4 5 10 17 21
8 14 15 14 11 7 9 10 7 4 3 3 3 3 3 3 2 2 3 3 4 6 6 6 3 2 2 2 2 3 4 4 5 3 2 5 7 10
9 11 12 10 8 7 7 6 5 4 4 3 3 3 2 2 2 2 3 3 3 4 6 8 8 7 4 5 5 5 6 5 5 6 7 8 8 7
9 6 5 5 6 6 5 5 5 5 4 3 3 3 3 3 3 3 3 3 4 4 4 4 5 7 11 9 6 8 8 7 7 7 8 11 10 9
8 6 6 6 6 6 5 5 5 5 5 4 4 3 3 3 4 4 5 5 6 6 6 5 4 3 3 10 16 8 8 9 9 10 10 11 12 10
7 7 7 7 6 6 5 4 4 4 4 4 4 4 4 4 4 5 5 6 6 7 8 8 7 6 9 8 10 16 9 8 9 11 12 11 12 11
7 8 8 7 7 6 5 4 4 4 4 5 5 5 4 4 5 5 6 7 7 8 9 9 9 9 9 7 5 10 17 10 9 11 12 12 13 18
8 8 8 7 7 6 6 5 4 4 5 5 5 5 4 4 5 6 6 8 8 8 9 9 8 8 6 6 9 11 13 19 16 8 7 9 10 11
7 8 8 8 8 7 7 6 5 6 6 6 6 5 3 3 5 6 5 5 6 7 8 6 6 6 8 11 12 12 12 12 18 25 23 14 7 7
7 7 7 8 7 7 7 8 8 7 7 6 6 5 3 3 3 4 4 4 5 6 7 6 6 7 9 10 11 11 15 14 13 16 18 25 29 27
Wind_Direction
258 261 255 262 267 267 269 271 280 287 285 284 281 281 283 286 283 289 287 283 277 266 253 245 246 251 255 260 264 268 272 274 275 276 275 275 274 265
263 267 268 266 268 271 270 269 267 274 281 281 281 282 291 293 293 291 288 290 286 275 257 244 240 243 248 255 259 263 268 271 270 271 269 270 275 270
282 286 288 288 285 285 283 282 282 282 287 290 288 291 289 287 286 282 283 275 270 266 258 250 245 244 246 248 251 257 263 267 267 266 263 265 272 274
317 316 309 305 301 297 292 292 291 291 290 294 296 294 290 290 285 280 282 276 269 272 264 254 248 245 243 241 242 248 254 260 260 257 256 260 264 264
329 319 312 306 299 300 299 294 291 290 288 289 289 287 286 284 285 285 280 277 281 280 273 261 254 251 247 239 236 240 244 248 246 238 241 255 260 259
318 309 304 300 298 297 293 284 281 279 277 278 282 285 285 284 283 285 290 290 291 296 299 293 273 256 249 240 234 237 235 234 231 222 223 234 247 261
308 304 304 303 296 286 282 280 281 279 279 279 281 283 285 288 289 293 294 295 287 281 283 282 276 259 246 242 240 239 232 225 221 218 219 225 227 233
306 309 307 300 302 300 291 286 278 275 277 278 282 282 284 286 289 289 288 288 284 262 265 273 265 262 252 238 240 234 224 220 218 218 219 220 221 222
311 311 311 311 312 305 306 305 293 281 274 273 275 277 282 286 291 291 284 280 273 264 263 268 247 254 248 239 223 220 215 216 222 224 224 222 218 217
312 308 307 308 308 311 306 297 288 283 276 274 271 279 287 291 287 283 280 275 268 253 225 250 245 247 249 219 207 213 223 231 236 235 231 226 221 216
315 312 309 306 306 306 302 294 289 285 280 276 276 281 285 286 286 284 278 271 269 235 184 228 262 269 255 226 209 221 244 252 250 244 236 228 220 214
316 312 311 312 311 308 303 294 290 293 305 313 305 298 294 299 312 313 319 309 299 298 122 253 270 305 293 266 237 247 265 267 261 249 236 225 213 206
318 320 322 325 323 319 312 294 290 300 307 306 305 310 318 334 360 11 10 359 348 342 355 306 293 273 266 288 284 263 279 284 272 251 235 221 205 195
322 326 330 332 333 340 348 350 340 331 321 326 334 341 348 9 27 27 24 22 17 5 351 338 310 324 299 300 306 301 290 296 291 268 236 200 193 187
329 331 332 336 343 354 5 7 6 4 0 3 4 5 6 16 23 18 17 14 18 26 24 23 22 13 16 359 328 317 312 321 335 348 65 119 139 158
335 330 333 342 352 353 357 1 1 4 4 8 1 355 357 17 29 17 12 1 8 26 32 36 38 42 44 32 24 17 7 358 3 32 64 81 95 111
333 337 350 354 0 359 0 6 6 7 10 1 360 5 15 26 32 26 26 22 23 23 31 29 41 58 56 37 32 26 22 26 28 38 64 74 73 81
354 354 356 358 356 358 2 7 6 2 357 356 1 5 15 30 46 47 41 36 37 33 30 20 11 18 47 51 31 28 33 34 37 44 58 72 71 66
5 357 355 355 355 3 6 6 3 354 348 354 357 2 18 47 59 60 54 50 49 47 42 35 34 47 66 59 32 26 36 43 52 57 57 62 68 68
1 356 353 353 356 360 360 4 1 356 355 355 357 5 21 51 68 67 65 64 62 63 61 54 49 50 61 65 54 40 35 43 57 68 72 73 75 79
356 353 351 352 353 355 357 3 7 6 4 359 359 7 24 53 74 78 81 80 77 75 75 72 68 66 67 69 69 60 50 47 50 55 68 78 77 74
353 351 350 352 354 358 2 7 11 10 5 1 356 3 22 53 80 90 93 95 93 93 93 94 89 76 71 73 74 69 64 60 56 55 55 61 76 82
350 348 349 352 357 0 6 9 11 8 3 358 354 358 20 52 79 97 105 104 108 111 110 108 100 87 82 80 81 79 75 72 70 68 65 71 84 93